Weather History for Olney-Noble, IL

Change the Weather History Date:

Thursday, March 13, 2014

  Actual Average (KEVV) Record (KEVV)
Temperature  
Mean Temperature 34 °F 45 °F  
Max Temperature 46 °F 56 °F 82 °F (1967)
Min Temperature 21 °F 35 °F 3 °F (1960)
Degree Days  
Heating Degree Days 32 20  
Month to date heating degree days 286  
Since 1 July heating degree days 3860  
Cooling Degree Days 0 0  
Month to date cooling degree days 0  
Year to date cooling degree days 0  
Moisture  
Dew Point 28 °F    
Average Humidity 77    
Maximum Humidity 100    
Minimum Humidity 57    
Precipitation  
Precipitation 0.00 in 0.14 in 1.73 in (1907)
Month to date precipitation 1.63  
Year to date precipitation 7.90  
Snow  
Snow 0.00 in 0.00 in 4.20 in (1958)
Month to date snowfall 0.6  
Since 1 July snowfall 11.3  
Snow Depth -    
Sea Level Pressure  
Sea Level Pressure 30.13 in    
Wind  
Wind Speed 4 mph (SSE)    
Max Wind Speed 13 mph    
Max Gust Speed 20 mph    
Visibility 9 miles    
Events      
T = Trace of Precipitation, MM = Missing Value Source: NWS Daily Summary

Daily Weather History Graph

Daily Weather History Graph

Search for Another Location

Airport:

Trip Planner

Search our weather history database for the weather conditions in past years. The results will help you decide how hot, cold, wet, or windy it might be!

Date:

Astronomy

Mar. 13, 2014 Rise Set
Actual Time 7:07 AM CDT 6:57 PM CDT
Civil Twilight 6:40 AM CDT 7:24 PM CDT
Nautical Twilight 6:09 AM CDT 7:55 PM CDT
Astronomical Twilight 5:38 AM CDT 8:26 PM CDT
Moon 4:24 PM CDT (3/13) 5:12 AM CDT (3/13)
Length of Visible Light 12h 43m
Length of Day
11h 50m
Waxing Gibbous, 91% of the Moon is Illuminated
Mar 13
Waxing Gibbous
Mar 16
Full
Mar 23
Last Quarter
Mar 30
New
Apr 7
First Quarter

Hourly Weather History & Observations

Time (CDT) Temp. Windchill Dew Point Humidity Pressure Visibility Wind Dir Wind Speed Gust Speed Precip Events Conditions
12:15 AM 30.2 °F - 26.6 °F 86% 30.13 in 10.0 mi Calm Calm - N/A   Scattered Clouds
12:35 AM 28.4 °F - 26.6 °F 93% 30.13 in 10.0 mi Calm Calm - N/A   Clear
12:55 AM 28.4 °F - 24.8 °F 86% 30.13 in 10.0 mi Calm Calm - N/A   Clear
1:15 AM 28.4 °F - 24.8 °F 86% 30.13 in 10.0 mi Calm Calm - N/A   Clear
1:35 AM 28.4 °F - 24.8 °F 86% 30.13 in 10.0 mi Calm Calm - N/A   Clear
1:55 AM 26.6 °F - 23.0 °F 86% 30.14 in 10.0 mi Calm Calm - N/A   Clear
2:15 AM 26.6 °F - 23.0 °F 86% 30.14 in 10.0 mi Calm Calm - N/A   Clear
2:35 AM 26.6 °F - 23.0 °F 86% 30.14 in 10.0 mi Calm Calm - N/A   Clear
2:55 AM 24.8 °F - 23.0 °F 93% 30.14 in 10.0 mi Calm Calm - N/A   Clear
3:15 AM 24.8 °F - 23.0 °F 93% 30.14 in 7.0 mi Calm Calm - N/A   Clear
3:35 AM 26.6 °F - 23.0 °F 86% 30.14 in 10.0 mi Calm Calm - N/A   Clear
3:55 AM 24.8 °F - 23.0 °F 93% 30.14 in 7.0 mi Calm Calm - N/A   Scattered Clouds
4:15 AM 24.8 °F - 23.0 °F 93% 30.14 in 7.0 mi Calm Calm - N/A   Scattered Clouds
4:35 AM 24.8 °F - 23.0 °F 93% 30.15 in 7.0 mi Calm Calm - N/A   Clear
4:55 AM 23.0 °F - 23.0 °F 100% 30.15 in 5.0 mi Calm Calm - N/A   Clear
5:15 AM 23.0 °F - 23.0 °F 100% 30.16 in 5.0 mi Calm Calm - N/A   Clear
5:35 AM 23.0 °F - 23.0 °F 100% 30.17 in 5.0 mi Calm Calm - N/A   Clear
5:55 AM 23.0 °F - 23.0 °F 100% 30.18 in 5.0 mi Calm Calm - N/A   Clear
6:15 AM 23.0 °F - 23.0 °F 100% 30.18 in 5.0 mi Calm Calm - N/A   Clear
6:35 AM 23.0 °F - 21.2 °F 93% 30.19 in 5.0 mi Calm Calm - N/A   Clear
6:55 AM 23.0 °F - 23.0 °F 100% 30.20 in 3.0 mi Calm Calm - N/A   Mostly Cloudy
7:15 AM 21.2 °F - 21.2 °F 100% 30.20 in 4.0 mi Calm Calm - N/A   Overcast
7:35 AM 23.0 °F - 21.2 °F 93% 30.20 in 4.0 mi Calm Calm - N/A   Overcast
7:55 AM 23.0 °F - 23.0 °F 100% 30.22 in 4.0 mi Calm Calm - N/A   Mostly Cloudy
8:15 AM 26.6 °F - 24.8 °F 93% 30.23 in 4.0 mi Calm Calm - N/A   Scattered Clouds
8:35 AM 26.6 °F - 23.0 °F 86% 30.23 in 10.0 mi Calm Calm - N/A   Clear
8:55 AM 28.4 °F 22.2 °F 23.0 °F 80% 30.23 in 10.0 mi SE 5.8 mph - N/A   Clear
9:15 AM 30.2 °F 23.4 °F 21.2 °F 69% 30.24 in 10.0 mi SSE 6.9 mph - N/A   Clear
9:35 AM 30.2 °F 21.9 °F 23.0 °F 75% 30.24 in 10.0 mi SSE 9.2 mph - N/A   Clear
9:55 AM 32.0 °F 24.2 °F 24.8 °F 75% 30.24 in 10.0 mi SSE 9.2 mph - N/A   Clear
10:15 AM 32.0 °F 25.6 °F 26.6 °F 80% 30.23 in 10.0 mi SSE 6.9 mph - N/A   Clear
10:35 AM 32.0 °F 24.8 °F 24.8 °F 75% 30.23 in 10.0 mi South 8.1 mph - N/A   Scattered Clouds
10:55 AM 32.0 °F 24.8 °F 26.6 °F 80% 30.23 in 10.0 mi SSE 8.1 mph - N/A   Scattered Clouds
11:15 AM 33.8 °F 27.0 °F 28.4 °F 81% 30.23 in 10.0 mi South 8.1 mph - N/A   Scattered Clouds
11:35 AM 33.8 °F 27.0 °F 26.6 °F 75% 30.22 in 10.0 mi SSE 8.1 mph - N/A   Scattered Clouds
11:55 AM 33.8 °F 29.6 °F 26.6 °F 75% 30.22 in 10.0 mi South 4.6 mph - N/A   Clear
12:15 PM 35.6 °F 29.9 °F 28.4 °F 75% 30.21 in 10.0 mi SSE 6.9 mph - N/A   Clear
12:35 PM 37.4 °F 31.4 °F 28.4 °F 70% 30.21 in 10.0 mi South 8.1 mph - N/A   Clear
12:55 PM 37.4 °F 29.8 °F 30.2 °F 75% 30.20 in 10.0 mi SSE 11.5 mph - N/A   Scattered Clouds
1:15 PM 39.2 °F 33.6 °F 32.0 °F 75% 30.19 in 10.0 mi South 8.1 mph 16.1 mph N/A   Clear
1:35 PM 41.0 °F 34.3 °F 30.2 °F 65% 30.17 in 10.0 mi SSE 11.5 mph - N/A   Mostly Cloudy
1:55 PM 41.0 °F 34.3 °F 30.2 °F 65% 30.16 in 10.0 mi SSE 11.5 mph - N/A   Overcast
2:15 PM 41.0 °F 33.9 °F 30.2 °F 65% 30.14 in 10.0 mi SSE 12.7 mph - N/A   Scattered Clouds
2:35 PM 42.8 °F 37.0 °F 30.2 °F 61% 30.13 in 10.0 mi SSE 10.4 mph 16.1 mph N/A   Clear
2:55 PM 42.8 °F 36.6 °F 32.0 °F 66% 30.12 in 10.0 mi South 11.5 mph - N/A   Clear
3:15 PM 44.6 °F 38.8 °F 32.0 °F 61% 30.12 in 10.0 mi South 11.5 mph 17.3 mph N/A   Clear
3:35 PM 44.6 °F 38.8 °F 32.0 °F 61% 30.11 in 10.0 mi SSE 11.5 mph - N/A   Clear
3:55 PM 44.6 °F 38.8 °F 32.0 °F 61% 30.11 in 10.0 mi South 11.5 mph - N/A   Clear
4:15 PM 44.6 °F 38.8 °F 32.0 °F 61% 30.10 in 10.0 mi South 11.5 mph 18.4 mph N/A   Clear
4:35 PM 46.4 °F 40.7 °F 32.0 °F 57% 30.09 in 10.0 mi SSE 12.7 mph - N/A   Clear
4:55 PM 46.4 °F 40.7 °F 32.0 °F 57% 30.08 in 10.0 mi South 12.7 mph 19.6 mph N/A   Clear
5:15 PM 46.4 °F 41.1 °F 32.0 °F 57% 30.08 in 10.0 mi South 11.5 mph 17.3 mph N/A   Clear
5:35 PM 46.4 °F 40.7 °F 32.0 °F 57% 30.08 in 10.0 mi South 12.7 mph - N/A   Clear
5:55 PM 46.4 °F 40.7 °F 32.0 °F 57% 30.07 in 10.0 mi SSE 12.7 mph 17.3 mph N/A   Clear
6:15 PM 46.4 °F 41.9 °F 32.0 °F 57% 30.07 in 10.0 mi SSE 9.2 mph 17.3 mph N/A   Clear
6:35 PM 46.4 °F 41.1 °F 32.0 °F 57% 30.06 in 10.0 mi SSE 11.5 mph - N/A   Clear
6:55 PM 44.6 °F 39.2 °F 32.0 °F 61% 30.06 in 10.0 mi SSE 10.4 mph - N/A   Clear
7:15 PM 44.6 °F 40.2 °F 32.0 °F 61% 30.05 in 10.0 mi SSE 8.1 mph - N/A   Clear
7:35 PM 42.8 °F 38.0 °F 32.0 °F 66% 30.05 in 10.0 mi SSE 8.1 mph - N/A   Clear
7:55 PM 42.8 °F 38.0 °F 32.0 °F 66% 30.05 in 10.0 mi SSE 8.1 mph - N/A   Clear
8:15 PM 42.8 °F 38.0 °F 32.0 °F 66% 30.05 in 10.0 mi SSE 8.1 mph - N/A   Clear
8:35 PM 42.8 °F 38.0 °F 32.0 °F 66% 30.05 in 10.0 mi SSE 8.1 mph - N/A   Clear
8:55 PM 42.8 °F 38.6 °F 32.0 °F 66% 30.05 in 10.0 mi SSE 6.9 mph - N/A   Clear
9:15 PM 42.8 °F 38.6 °F 32.0 °F 66% 30.05 in 10.0 mi SSE 6.9 mph - N/A   Clear
9:35 PM 42.8 °F 38.6 °F 32.0 °F 66% 30.04 in 10.0 mi SSE 6.9 mph - N/A   Clear
9:55 PM 41.0 °F 36.4 °F 32.0 °F 70% 30.04 in 10.0 mi SSE 6.9 mph - N/A   Clear
10:15 PM 41.0 °F 35.8 °F 32.0 °F 70% 30.03 in 10.0 mi SSE 8.1 mph - N/A   Clear
10:35 PM 41.0 °F 35.2 °F 32.0 °F 70% 30.03 in 10.0 mi SSE 9.2 mph - N/A   Clear
10:55 PM 41.0 °F 34.7 °F 32.0 °F 70% 30.02 in 10.0 mi SSE 10.4 mph - N/A   Clear
11:15 PM 41.0 °F 35.2 °F 32.0 °F 70% 30.01 in 10.0 mi SSE 9.2 mph - N/A   Clear
11:35 PM 41.0 °F 35.8 °F 32.0 °F 70% 30.01 in 10.0 mi SSE 8.1 mph - N/A   Clear
11:55 PM 41.0 °F 36.4 °F 32.0 °F 70% 30.00 in 10.0 mi SSE 6.9 mph - N/A   Clear